[[{"header":{"parameterUnit":"m.s-1","parameterCategory":1,"la1":30.2991,"la2":30.254,"lo1":-89.0895,"lo2":-89.0444,"dy":0.0017,"dx":0.0017,"nx":28,"ny":28,"refTime":"2023-04-23T21:00:00:Z","depth":0,"parameterNumber":2,"parameterNumberName":"U-component_of_WINDS"},"data":[0,0,0,0,0,0,0,0,0,0,0,0,0,0,0,0,0,0,0,0,0,0,0,0,0,0,0,0,0,0,0,0,0,0,0,0,0,0,0,0,0,0,0,0,0,0,0,0,0,0,0,0,0,0,0,0,0,0,-2.1203,-2.1204,0,-2.1263,-2.1263,-2.1264,-2.119,-2.1188,-2.1185,-2.1182,-2.1245,-2.1249,-2.1254,0,0,0,0,0,0,0,0,0,0,0,0,0,-2.1027,-2.1031,-2.1203,-2.1204,-2.1205,-2.1263,-2.1263,-2.1264,-2.1191,-2.1187,-2.1184,-2.1181,-2.1244,-2.1249,-2.1254,0,0,0,0,0,0,0,0,0,0,0,0,0,-2.1097,-2.1032,-2.1203,-2.1175,-2.1173,-2.1262,-2.1263,-2.1264,-2.1191,-2.1187,-2.1183,-2.1179,-2.1242,-2.1248,-2.1255,-2.1375,0,0,-2.1274,-2.1277,0,0,0,0,0,0,0,0,-2.1093,-2.1103,-2.1178,-2.1177,-2.1175,-2.1215,-2.1224,-2.1302,-2.1192,-2.1185,-2.1182,-2.1177,-2.1239,-2.1245,-2.1265,-2.1378,-2.1381,-2.1274,-2.1278,-2.1281,-2.1283,0,0,0,0,0,0,0,-2.1088,-2.11,-2.1227,-2.1179,-2.1178,-2.116,-2.1165,-2.1239,-2.1234,-2.1185,-2.118,-2.1188,-2.1237,-2.1259,-2.1266,-2.1382,-2.1274,-2.128,-2.1284,-2.1286,-2.1597,-2.1601,0,0,0,0,0,0,-2.1086,-2.1097,-2.1225,-2.1228,-2.1123,-2.1166,-2.1172,-2.1206,-2.1233,-2.1233,-2.1191,-2.1184,-2.125,-2.1259,-2.1268,-2.1412,-2.1281,-2.1287,-2.1291,-2.1592,-2.1598,-2.1602,0,0,0,0,0,0,-2.1083,-2.1099,-2.1222,-2.1161,-2.1176,-2.1173,-2.1212,-2.121,-2.1232,-2.1237,-2.1236,-2.1215,-2.1248,-2.1259,-2.1349,-2.1413,-2.129,-2.1295,-2.1587,-2.1594,-2.16,-2.17,0,0,0,0,0,0,-2.1078,-2.1098,-2.1144,-2.1163,-2.1179,-2.1303,-2.1216,-2.1214,-2.1243,-2.1234,-2.1259,-2.126,-2.1245,-2.134,-2.1355,-2.1419,-2.13,-2.1581,-2.159,-2.1598,-2.1691,-2.1709,-2.1725,0,0,0,0,0,-2.1072,-2.117,-2.1146,-2.1162,-2.1236,-2.1306,-2.1316,-2.1297,-2.1248,-2.1294,-2.1298,-2.1259,-2.1403,-2.135,-2.1366,-2.1433,-2.1577,-2.1587,-2.1597,-2.1683,-2.1706,-2.1724,0,0,0,0,0,0,-2.1159,-2.1172,-2.1146,-2.1252,-2.1279,-2.1294,-2.1352,-2.1321,-2.1362,-2.1353,-2.1327,-2.1334,-2.143,-2.144,-2.1381,-2.1551,-2.1482,-2.1496,-2.1542,-2.1563,-2.1579,-2.1576,-2.1306,0,0,0,0,0,-2.119,-2.1246,-2.1254,-2.1347,-2.1361,-2.1354,-2.1384,-2.1367,-2.1394,-2.1405,-2.1414,-2.1442,-2.1494,-2.1528,-2.1576,-2.1691,-2.1696,-2.1745,-2.1762,-2.1776,-2.1789,-2.1851,-2.1873,-2.1635,-2.1635,-2.1635,0,0,-2.1256,-2.127,-2.1307,-2.1365,-2.1383,-2.1442,-2.1364,-2.143,-2.1473,-2.1415,-2.1501,-2.1509,-2.1538,-2.1641,-2.1687,-2.1652,-2.1855,-2.1788,-2.1799,-2.1805,-2.1864,-2.1886,-2.1906,-2.1642,-2.1641,-2.164,0,0,-2.1407,-2.1422,-2.1502,-2.1521,-2.155,-2.1544,-2.1563,-2.1582,-2.1585,-2.1671,-2.1628,-2.1679,-2.1768,-2.1791,-2.1814,-2.1971,-2.1938,-2.1987,-2.2077,-2.2138,-2.2157,-2.2173,-2.2231,-2.2252,-2.1999,-2.2,-2.2,0,-2.1486,-2.1572,-2.1547,-2.1615,-2.1642,-2.159,-2.1671,-2.1691,-2.1734,-2.1755,-2.1715,-2.1825,-2.1841,-2.1949,-2.1987,-2.2007,-2.2029,-2.1986,-2.2156,-2.2172,-2.2187,-2.2242,-2.2264,-2.2006,-2.2005,-2.2004,-2.2004,0,-2.1668,-2.1728,-2.1789,-2.1831,-2.1864,-2.1939,-2.1926,-2.1962,-2.1942,-2.194,-2.2028,-2.2044,-2.2095,-2.2118,-2.2099,-2.2224,-2.2202,-2.2159,-2.209,-2.2216,-2.2268,-2.2288,-2.2014,-2.2012,-2.201,-2.2009,0,0,-2.1878,-2.1903,-2.1927,-2.1945,-2.1971,-2.2018,-2.2089,-2.2138,-2.2171,-2.2201,-2.2261,-2.2337,-2.2297,-2.2324,-2.2306,-2.2359,-2.2484,-2.231,-2.231,-2.2344,-2.2625,-2.2659,-2.2683,-2.2461,-2.2464,-2.2467,-2.2623,0,-2.203,-2.2154,-2.2133,-2.2253,-2.2309,-2.2259,-2.2322,-2.2345,-2.2345,-2.2393,-2.2392,-2.2447,-2.239,-2.2405,-2.2456,-2.2459,-2.2541,-2.2446,-2.2518,-2.2521,-2.2515,-2.271,-2.2746,-2.2892,-2.2642,-2.2646,-2.2648,0,-2.2225,-2.2262,-2.2388,-2.2405,-2.2428,-2.2485,-2.2527,-2.2573,-2.2598,-2.2594,-2.2623,-2.2595,-2.2666,-2.2593,-2.2692,-2.2629,-2.2656,-2.2662,-2.2667,-2.2675,-2.2595,-2.2726,-2.2938,-2.2961,-2.2679,-2.2677,-2.2674,0,-2.2368,-2.2449,-2.2535,-2.2552,-2.2574,-2.2615,-2.2626,-2.2647,-2.2677,-2.2714,-2.2734,-2.2778,-2.2804,-2.2839,-2.2824,-2.2772,-2.2927,-2.2852,-2.2927,-2.2928,-2.2965,-2.2963,-2.3187,-2.2978,-2.2978,-2.2977,-2.2977,0,-2.2542,-2.2622,-2.26,-2.2653,-2.2741,-2.2715,-2.2803,-2.2808,-2.2826,-2.288,-2.2839,-2.289,-2.2866,-2.2916,-2.2904,-2.2989,-2.3,-2.3,-2.2996,-2.3005,-2.3006,-2.3025,-2.3016,-2.2983,-2.2982,-2.298,-2.2979,0,-2.2718,-2.2707,-2.2798,-2.281,-2.2815,-2.2879,-2.289,-2.294,-2.2936,-2.3004,-2.3019,-2.3013,-2.3069,-2.3056,-2.3118,-2.311,-2.3217,-2.32,-2.3209,-2.3206,-2.3283,-2.3277,-2.3529,-2.3562,-2.333,-2.3332,-2.3334,0,-2.2832,-2.2892,-2.291,-2.2943,-2.2957,-2.301,-2.304,-2.3016,-2.305,-2.3082,-2.3129,-2.3181,-2.3222,-2.3314,-2.3316,-2.3362,-2.3347,-2.3432,-2.3354,-2.3362,-2.3351,-2.3349,-2.3356,-2.3449,-2.3452,-2.3454,-2.3456,0,-2.3035,-2.3026,-2.3071,-2.3114,-2.3151,-2.3184,-2.3213,-2.3242,-2.322,-2.326,-2.3316,-2.3348,-2.341,-2.3463,-2.3506,-2.3518,-2.3485,-2.348,-2.35,-2.3511,-2.3515,-2.3516,-2.3255,-2.3475,-2.3473,-2.3472,-2.3471,-2.347,-2.3185,-2.3236,-2.3257,-2.3308,-2.3327,-2.3355,-2.3403,-2.3404,-2.345,-2.3499,-2.3482,-2.3547,-2.3569,-2.3624,-2.364,-2.3691,-2.3659,-2.3688,-2.3696,-2.3704,-2.3715,-2.3505,-2.3698,-2.3698,-2.3697,-2.3697,-2.3696,0,-2.3388,-2.3398,-2.3445,-2.3487,-2.3528,-2.3489,-2.3519,-2.3556,-2.3614,-2.3637,-2.3678,-2.3743,-2.3794,-2.3798,-2.3846,-2.3886,-2.3872,-2.3899,-2.3898,-2.3901,-2.3739,-2.3718,-2.391,-2.391,-2.391,-2.391,-2.391,-2.391,-2.3498,-2.3583,-2.3576,-2.367,-2.368,-2.3743,-2.3764,-2.3789,-2.3808,-2.3882,-2.3924,-2.3925,-2.3942,-2.399,-2.4035,-2.4035,-2.4055,-2.409,-2.4084,-2.3934,-2.3913,-2.3892,-2.3872,-2.4094,-2.4094,-2.4242,-2.4244,-2.4245]},{"header":{"parameterUnit":"m.s-1","parameterCategory":1,"la1":30.2991,"la2":30.254,"lo1":-89.0895,"lo2":-89.0444,"dy":0.0017,"dx":0.0017,"nx":28,"ny":28,"refTime":"2023-04-23T21:00:00:Z","depth":0,"parameterNumber":3,"parameterNumberName":"V-component_of_WINDS"},"data":[0,0,0,0,0,0,0,0,0,0,0,0,0,0,0,0,0,0,0,0,0,0,0,0,0,0,0,0,0,0,0,0,0,0,0,0,0,0,0,0,0,0,0,0,0,0,0,0,0,0,0,0,0,0,0,0,0,0,-4.4056,-4.4057,0,-4.4107,-4.4108,-4.4108,-4.4047,-4.4045,-4.4043,-4.4041,-4.409,-4.4093,-4.4096,0,0,0,0,0,0,0,0,0,0,0,0,0,-4.3902,-4.3905,-4.4056,-4.4057,-4.4057,-4.4107,-4.4108,-4.4108,-4.4048,-4.4045,-4.4042,-4.404,-4.4089,-4.4093,-4.4097,0,0,0,0,0,0,0,0,0,0,0,0,0,-4.3962,-4.3906,-4.4056,-4.4033,-4.4032,-4.4107,-4.4108,-4.4108,-4.4048,-4.4045,-4.4042,-4.4039,-4.4087,-4.4092,-4.4097,-4.4196,0,0,-4.4113,-4.4115,0,0,0,0,0,0,0,0,-4.3959,-4.3968,-4.4036,-4.4035,-4.4033,-4.4067,-4.4071,-4.4138,-4.4049,-4.4042,-4.4041,-4.4037,-4.4085,-4.409,-4.4107,-4.4199,-4.4201,-4.4113,-4.4116,-4.4119,-4.412,0,0,0,0,0,0,0,-4.3955,-4.3965,-4.4076,-4.4037,-4.4035,-4.4019,-4.4024,-4.4083,-4.4082,-4.4042,-4.4038,-4.4045,-4.4083,-4.4102,-4.4108,-4.4201,-4.4113,-4.4118,-4.4121,-4.4123,-4.4374,-4.4378,0,0,0,0,0,0,-4.3954,-4.3962,-4.4074,-4.4077,-4.3987,-4.4024,-4.403,-4.406,-4.4081,-4.4081,-4.4048,-4.4042,-4.4095,-4.4102,-4.4109,-4.4225,-4.4119,-4.4123,-4.4126,-4.4371,-4.4375,-4.4379,0,0,0,0,0,0,-4.3951,-4.3964,-4.4072,-4.4019,-4.4031,-4.4031,-4.4065,-4.4063,-4.4081,-4.4085,-4.4084,-4.4068,-4.4093,-4.4102,-4.4175,-4.4226,-4.4126,-4.413,-4.4367,-4.4372,-4.4377,-4.4458,0,0,0,0,0,0,-4.3947,-4.3964,-4.4002,-4.402,-4.4034,-4.4139,-4.4068,-4.4066,-4.409,-4.4083,-4.4103,-4.4103,-4.4091,-4.4167,-4.418,-4.4231,-4.4134,-4.4362,-4.4369,-4.4375,-4.4451,-4.4466,-4.4478,0,0,0,0,0,-4.3941,-4.4023,-4.4005,-4.4019,-4.4083,-4.4142,-4.415,-4.4135,-4.4095,-4.4133,-4.4135,-4.4103,-4.4218,-4.4176,-4.4189,-4.4242,-4.4359,-4.4367,-4.4375,-4.4445,-4.4463,-4.4478,0,0,0,0,0,0,-4.401,-4.4025,-4.4005,-4.4095,-4.4118,-4.4132,-4.4179,-4.4155,-4.4188,-4.418,-4.4159,-4.4164,-4.4241,-4.4249,-4.4201,-4.4338,-4.4282,-4.4293,-4.433,-4.4347,-4.4361,-4.4357,-4.4139,0,0,0,0,0,-4.4036,-4.4084,-4.4094,-4.4172,-4.4184,-4.418,-4.4205,-4.4192,-4.4214,-4.4223,-4.423,-4.4252,-4.4293,-4.4321,-4.4359,-4.4452,-4.4454,-4.4495,-4.4509,-4.452,-4.453,-4.4577,-4.4595,-4.4406,-4.4406,-4.4406,0,0,-4.409,-4.4103,-4.4135,-4.4186,-4.4202,-4.4251,-4.4189,-4.4243,-4.4278,-4.4231,-4.43,-4.4306,-4.4329,-4.4412,-4.4449,-4.4421,-4.4582,-4.453,-4.4539,-4.4543,-4.4588,-4.4606,-4.4621,-4.4411,-4.441,-4.441,0,0,-4.4212,-4.4228,-4.4294,-4.4312,-4.4337,-4.4333,-4.4349,-4.4367,-4.4369,-4.4439,-4.4404,-4.4445,-4.4516,-4.4533,-4.4552,-4.4679,-4.465,-4.4692,-4.4763,-4.481,-4.4825,-4.4838,-4.4882,-4.4899,-4.4702,-4.4702,-4.4702,0,-4.4275,-4.4348,-4.4331,-4.4388,-4.441,-4.4371,-4.4436,-4.4454,-4.449,-4.4506,-4.4474,-4.4562,-4.4575,-4.4661,-4.4692,-4.4708,-4.4724,-4.4689,-4.4825,-4.4838,-4.4849,-4.4891,-4.4908,-4.4707,-4.4706,-4.4706,-4.4705,0,-4.4423,-4.4474,-4.4524,-4.4561,-4.4589,-4.4651,-4.4642,-4.4672,-4.4656,-4.4655,-4.4725,-4.4739,-4.4778,-4.4797,-4.4782,-4.4881,-4.4862,-4.4828,-4.4771,-4.4873,-4.4911,-4.4927,-4.4714,-4.4712,-4.4711,-4.4709,0,0,-4.459,-4.4617,-4.4635,-4.4651,-4.4675,-4.4713,-4.4772,-4.4811,-4.4837,-4.4863,-4.491,-4.4971,-4.4939,-4.496,-4.4946,-4.4987,-4.5085,-4.4948,-4.4948,-4.4972,-4.5193,-4.5218,-4.5237,-4.5066,-4.5069,-4.5072,-4.5191,0,-4.4712,-4.4814,-4.48,-4.4898,-4.4944,-4.4906,-4.4956,-4.4976,-4.4977,-4.5014,-4.5014,-4.5057,-4.5013,-4.5025,-4.5064,-4.5065,-4.5129,-4.5057,-4.5109,-4.5111,-4.5103,-4.5257,-4.5284,-4.5396,-4.5206,-4.5208,-4.521,0,-4.4867,-4.4899,-4.5002,-4.5018,-4.5037,-4.5083,-4.5117,-4.5154,-4.5175,-4.5172,-4.5195,-4.5173,-4.5229,-4.5172,-4.5248,-4.5199,-4.5219,-4.5223,-4.5227,-4.523,-4.5166,-4.5264,-4.5431,-4.5448,-4.5234,-4.5232,-4.5231,0,-4.4977,-4.5046,-4.5116,-4.513,-4.5151,-4.5184,-4.5194,-4.5212,-4.5236,-4.5265,-4.528,-4.5316,-4.5335,-4.5362,-4.535,-4.5309,-4.5428,-4.537,-4.5426,-4.5426,-4.5452,-4.545,-4.5624,-4.5467,-4.5467,-4.5467,-4.5466,0,-4.5114,-4.5177,-4.5165,-4.5208,-4.5278,-4.5261,-4.533,-4.5335,-4.5351,-4.5392,-4.5362,-4.5401,-4.5383,-4.5421,-4.5411,-4.5475,-4.5484,-4.5483,-4.5479,-4.5485,-4.5485,-4.5497,-4.5489,-4.5471,-4.547,-4.5469,-4.5468,0,-4.5248,-4.5243,-4.5316,-4.533,-4.5335,-4.5386,-4.5396,-4.5436,-4.5434,-4.5487,-4.5498,-4.5495,-4.5538,-4.5528,-4.5575,-4.5568,-4.5649,-4.5636,-4.5642,-4.5638,-4.5695,-4.5689,-4.5881,-4.5905,-4.5734,-4.5736,-4.5737,0,-4.5335,-4.5383,-4.5402,-4.5429,-4.5441,-4.5484,-4.5509,-4.5493,-4.5519,-4.5546,-4.5582,-4.5622,-4.5654,-4.5724,-4.5724,-4.5759,-4.5747,-4.5812,-4.5752,-4.5755,-4.5746,-4.5743,-4.5747,-4.5823,-4.5825,-4.5827,-4.5828,0,-4.549,-4.5484,-4.5522,-4.5558,-4.5588,-4.5615,-4.564,-4.5663,-4.5648,-4.5679,-4.5723,-4.5748,-4.5796,-4.5836,-4.5868,-4.5876,-4.585,-4.5847,-4.5861,-4.5867,-4.5868,-4.5867,-4.5673,-4.5842,-4.5841,-4.584,-4.5839,-4.5839,-4.5602,-4.5643,-4.5662,-4.5704,-4.5721,-4.5744,-4.5781,-4.5784,-4.5821,-4.5859,-4.5847,-4.5897,-4.5914,-4.5955,-4.5968,-4.6005,-4.598,-4.6002,-4.6007,-4.6012,-4.6019,-4.5863,-4.6011,-4.6011,-4.601,-4.601,-4.6009,0,-4.5754,-4.5764,-4.5803,-4.5838,-4.5871,-4.5844,-4.5869,-4.5897,-4.5942,-4.5961,-4.5993,-4.6042,-4.6081,-4.6084,-4.612,-4.6149,-4.6137,-4.6159,-4.6156,-4.6158,-4.6039,-4.6023,-4.6167,-4.6167,-4.6167,-4.6167,-4.6167,-4.6167,-4.5837,-4.5903,-4.59,-4.5974,-4.5984,-4.6033,-4.6049,-4.607,-4.6085,-4.6142,-4.6174,-4.6177,-4.6189,-4.6225,-4.6258,-4.6258,-4.6272,-4.6298,-4.6293,-4.6182,-4.6166,-4.6151,-4.6135,-4.6301,-4.6302,-4.6408,-4.6409,-4.641]}]]